Orbital Elements at Epoch 2459200.5 (2020-Dec-17.0) TDB
Reference: JPL 17 (heliocentric ecliptic J2000)
Element | Value | Uncertainty (1-sigma) | Units |
e | .08657423767251173 | 4.964e-08 | |
a | 2.613803189845416 | 2.1658e-08 | au |
q | 2.38751517125857 | 1.3726e-07 | au |
i | 3.77121251594386 | 8.0243e-06 | deg |
node | 11.60798355507094 | 6.6319e-05 | deg |
peri | 285.967574381098 | 8.1674e-05 | deg |
M | 222.1812312742445 | 4.6127e-05 | deg |
tp | 2459791.399492740500 (2022-Jul-30.89949274) | 0.00019741 | TDB |
period | 1543.503975208759 4.23 | 1.9184e-05 5.252e-08 | d yr |
n | .2332355509167445 | 2.8989e-09 | deg/d |
Q | 2.840091208432263 | 2.3533e-08 | au |
|
| | Orbit Determination Parameters
Additional Information
|